sat.trackr.live / text

‹ back to catalog

STARLINK-11534 [DTC]

NORAD 62555 · 2025-006B

PAYLOAD ACTIVE UNKNOWN

§ Identity

Operator
Country
US
Launch date
2025-01-10
Launch site
AFETR
Launch vehicle
Mass (kg)
RCS (m²)

Purposes: comms

External: N2YO · Heavens-Above · Gunter

§ Orbital elements

Epoch: 2026-05-24T23:26:56.924736Z

Period
91.67 min
Inclination
42.9998°
Eccentricity
0.0001220
Mean motion
15.70867547 rev/d
Perigee alt
355.6 km
Apogee alt
357.2 km
Semi-major
6,734.6 km
B*
1.1377e-3
RAAN
39.7703°
Arg perigee
245.2276°
Mean anomaly
114.8465°
Rev number
7,860

§ Raw data

STARLINK-11534 [DTC]1 62555U 25006B   26144.97704774  .00148342  00000+0  11377-2 0  99902 62555  42.9998  39.7703 0001220 245.2276 114.8465 15.70867547 78608

JSON: /api/v1/satellites/62555 · /tle

For live sub-satellite position, see the globe view (requires WebGL).

§ Visibility from observer

Set your observer location to see the next 7 days of passes ≥ 10°. The values pass through the URL so the page stays shareable.

No JS? Fill the form by hand. The geolocation button needs JavaScript.